Theta_e
291 293 294 293 293 294 291 291 287 289 290 293 295 296 298 298 300 300 301 302 302 302 302 302 305 307 309 310 311 313 314 312 313 318 319 319 327 329 332 333 336 335 335 333
288 292 292 290 293 293 293 293 292 292 291 298 299 300 298 299 298 299 299 300 302 304 305 305 305 307 308 308 309 311 313 312 313 317 320 319 322 329 329 332 332 334 333 332
283 289 288 283 288 289 290 292 293 289 293 295 296 298 297 297 298 300 302 303 303 304 304 304 305 306 305 306 308 308 308 310 312 315 319 320 323 329 328 330 329 330 330 329
281 284 278 288 295 296 293 294 295 295 295 296 296 298 300 302 302 301 302 302 302 303 303 304 305 305 306 306 307 308 308 309 311 314 316 317 322 326 329 330 330 330 328 326
277 279 286 290 294 294 291 291 297 295 297 298 298 298 297 303 304 303 303 304 305 306 306 306 304 305 305 305 306 307 308 308 311 313 315 314 315 323 327 329 329 329 327 325
285 282 277 288 298 298 298 287 299 298 296 297 300 293 296 302 304 303 302 304 305 306 305 304 304 304 304 304 305 306 308 308 311 314 316 314 313 322 326 325 327 328 326 325
285 284 288 296 297 299 284 285 296 297 297 297 295 298 301 303 303 304 303 305 306 303 302 302 303 302 302 303 304 307 309 310 311 314 318 316 315 322 324 325 324 323 322 319
284 280 278 296 296 290 293 295 296 297 297 297 299 300 301 302 302 302 302 305 304 301 301 301 301 301 301 301 305 306 308 309 311 312 315 317 319 323 321 324 322 320 317 315
284 282 290 292 293 296 295 294 296 296 299 299 299 300 301 301 301 302 303 302 300 299 300 301 301 302 301 302 305 306 306 308 310 314 316 319 320 323 323 324 322 317 315 313
284 287 289 292 294 295 298 297 299 300 298 299 297 299 301 301 300 300 299 299 299 298 298 298 301 302 302 304 305 305 305 307 311 314 317 323 322 325 324 322 317 316 315 312
286 289 291 293 295 296 297 298 299 299 299 299 301 298 298 298 297 297 297 298 298 297 297 298 301 301 302 303 304 306 308 308 311 313 316 322 323 324 323 323 317 316 314 312
283 290 289 292 294 296 295 295 297 295 295 296 295 295 294 293 294 294 295 296 296 297 298 298 299 300 302 304 305 305 306 307 310 313 320 320 320 314 301 307 303 303 304 311
291 293 292 293 296 297 296 294 294 293 292 291 292 292 292 291 292 294 294 294 295 296 297 298 299 300 303 305 307 308 307 309 313 315 320 319 319 316 307 301 298 299 298 300
295 294 291 294 293 296 294 293 293 292 291 291 289 290 290 290 291 291 291 293 295 295 296 298 300 301 303 305 307 309 312 306 318 318 318 317 318 314 312 310 307 304 296 298
295 295 295 296 294 292 293 292 290 288 289 288 289 288 289 288 288 290 292 295 296 298 300 303 306 306 306 306 309 313 317 316 317 316 316 314 315 312 312 308 305 301 298 295
293 295 294 290 290 291 290 289 288 287 287 287 287 287 288 287 287 292 294 296 295 295 300 301 303 308 313 310 314 317 316 307 309 314 313 313 313 311 308 306 304 301 300 297
291 291 290 289 289 289 288 288 288 287 286 286 286 286 285 287 289 291 292 294 295 295 299 298 300 304 315 316 315 315 314 311 303 313 313 314 313 310 309 307 303 303 302 300
295 291 291 290 288 288 287 288 287 286 285 285 285 286 287 288 287 289 291 293 293 294 297 295 299 303 313 313 312 312 312 312 313 312 313 313 313 311 309 306 304 303 302 296
292 290 291 290 289 289 288 286 286 285 285 285 286 286 287 288 288 290 290 292 290 290 291 296 296 303 309 305 308 311 311 311 312 312 312 303 309 311 309 307 304 301 299 299
291 292 291 290 290 289 287 287 287 285 286 287 287 287 286 287 288 290 290 290 289 291 292 295 297 302 306 305 303 310 310 310 310 308 309 308 308 307 304 299 302 301 301 301
290 290 289 290 289 290 289 289 287 286 287 288 286 286 285 286 288 289 288 287 289 291 292 294 295 296 303 304 307 308 308 308 307 307 306 306 303 303 302 302 302 301 302 301
290 289 289 289 289 289 290 290 290 289 288 288 288 287 286 286 287 288 290 287 290 288 292 294 294 290 296 295 307 307 307 307 306 306 305 304 303 302 302 302 302 302 302 301
291 290 290 290 290 290 290 290 290 290 288 287 286 286 286 285 286 286 286 290 290 289 292 292 289 290 291 304 305 305 305 305 304 304 303 303 302 302 302 302 303 302 302 302
293 292 292 293 292 291 288 289 290 289 290 289 287 287 286 286 287 289 290 290 288 290 291 289 290 290 294 301 302 304 304 303 303 302 301 296 302 302 302 302 302 303 303 302
292 292 293 292 291 291 290 291 290 289 288 288 289 290 290 290 288 288 291 291 289 290 292 289 289 291 297 298 299 300 301 302 302 302 302 301 301 301 302 303 302 303 303 301
290 290 290 290 289 289 289 289 288 288 287 286 290 291 292 292 291 291 292 290 291 290 291 291 291 293 294 294 297 298 299 300 301 300 300 301 302 302 302 302 302 302 301 300
291 291 289 289 290 289 289 288 287 287 289 287 288 291 292 292 291 291 290 291 291 291 291 291 291 290 291 292 293 295 297 297 294 298 298 298 298 298 300 301 301 301 300 299
Wind_Speed
9 10 11 17 20 18 20 20 15 24 23 17 11 17 16 5 5 4 6 6 7 8 7 6 5 6 6 6 6 4 6 7 8 12 9 8 9 14 15 13 14 22 17 14
19 12 16 24 18 18 18 23 24 24 28 13 13 8 7 3 6 9 8 7 5 3 5 7 7 7 7 7 6 5 7 10 8 10 10 9 9 12 16 14 9 13 15 16
26 7 10 16 14 21 18 19 16 17 19 4 5 7 7 10 7 5 6 6 7 8 8 9 9 8 8 7 7 7 8 11 10 9 10 10 8 10 14 15 13 11 16 16
11 1 11 9 5 8 8 9 9 8 3 3 6 6 9 5 2 7 7 7 8 9 9 11 8 6 4 5 7 11 13 12 10 9 9 9 7 9 15 13 14 14 15 17
4 7 12 13 6 5 5 3 1 4 9 12 6 6 7 9 10 10 9 9 10 12 12 12 7 5 5 6 7 13 14 12 12 10 11 6 6 8 8 12 14 11 16 18
4 5 6 3 10 15 4 4 5 8 8 11 10 10 13 13 11 13 14 14 13 13 9 6 7 5 6 7 9 14 14 12 11 9 10 5 6 8 10 9 17 15 15 18
8 7 4 2 6 5 1 5 10 7 9 8 9 12 19 15 18 15 16 19 14 7 7 8 7 6 8 12 14 13 12 12 12 10 8 8 7 6 10 13 11 9 14 13
3 4 5 10 4 2 4 5 7 9 7 12 17 17 16 17 16 16 16 13 8 7 9 9 9 11 14 12 11 9 11 13 12 9 9 7 8 11 9 14 16 11 11 10
4 7 7 0 6 7 4 7 7 7 11 12 15 17 17 17 15 14 13 9 7 7 13 14 14 13 15 12 11 8 9 13 12 12 11 9 7 11 10 11 11 13 13 12
4 2 11 16 6 4 5 11 15 10 11 14 21 18 21 15 13 11 12 12 10 13 17 18 15 15 15 12 7 9 13 12 11 11 8 7 4 8 9 11 11 12 12 13
15 15 10 8 8 7 15 14 13 13 16 16 16 13 13 14 13 14 14 15 15 16 17 19 17 17 13 12 12 13 11 10 10 7 8 8 7 9 10 12 15 14 13 15
9 9 7 11 9 14 13 15 11 14 16 15 16 17 16 16 15 14 15 15 16 17 17 19 18 17 15 14 12 12 11 9 8 7 7 7 7 3 8 13 15 15 18 19
8 5 7 11 9 10 12 14 14 15 15 18 15 15 18 16 15 18 18 18 16 17 18 19 18 17 15 14 12 12 11 11 8 9 8 9 9 8 7 9 9 15 15 16
8 5 7 10 10 13 10 13 16 15 14 15 17 17 16 17 17 16 17 17 16 17 18 18 18 17 16 13 12 12 12 13 7 7 7 8 10 9 9 11 11 7 10 21
1 4 8 11 10 8 11 13 15 16 16 16 14 15 15 16 15 16 17 16 15 15 15 15 14 15 13 12 12 11 8 7 8 7 7 7 8 9 9 11 11 11 11 8
6 8 10 6 9 10 10 12 14 15 15 16 16 16 16 14 14 15 13 12 12 10 12 13 12 11 11 12 11 8 7 10 9 8 8 9 9 10 10 11 13 12 12 13
6 7 7 11 8 9 10 11 12 14 14 15 16 15 14 13 13 13 13 13 12 12 10 11 13 13 6 5 6 5 6 7 10 9 9 8 9 11 11 12 12 12 14 14
6 2 1 4 7 8 10 11 11 12 13 15 14 13 12 12 12 13 14 13 12 12 11 15 13 11 2 4 6 5 6 8 9 9 8 8 7 9 11 12 14 14 13 9
3 1 2 4 5 7 8 9 11 12 12 12 13 13 12 12 13 13 14 11 14 15 18 17 23 11 4 5 6 5 7 7 7 7 8 9 8 8 9 12 13 14 15 14
1 2 3 3 4 5 7 9 10 10 11 11 11 12 13 14 14 13 14 12 13 11 15 16 15 10 7 6 6 5 7 8 8 7 8 8 10 9 8 11 13 14 15 12
5 3 2 3 4 6 5 7 8 10 12 11 11 11 10 10 13 13 15 12 17 18 15 17 12 8 5 5 6 6 7 7 8 8 8 8 10 10 10 10 12 13 14 12
4 4 5 5 5 6 6 6 7 9 10 12 13 13 13 15 15 13 11 12 11 17 11 10 9 10 7 7 6 7 7 8 7 7 8 9 9 9 9 10 11 12 12 12
5 5 5 4 5 5 5 5 6 8 9 10 11 12 10 7 6 10 12 16 11 13 11 12 16 16 13 8 7 7 8 8 8 7 7 8 8 8 9 10 11 12 12 13
4 5 5 5 5 4 4 5 5 6 8 8 9 9 9 10 9 9 9 12 19 15 12 15 16 16 13 10 9 8 8 8 9 8 8 9 8 8 8 9 9 9 11 13
4 5 4 2 1 3 3 4 4 5 7 9 9 10 10 8 7 8 10 11 17 15 13 19 19 18 12 12 11 10 9 8 8 7 7 8 7 8 8 9 9 10 11 11
1 3 3 3 2 2 3 3 3 4 4 6 7 8 9 9 9 10 10 13 13 15 12 12 12 12 12 13 13 13 10 10 10 9 9 8 7 7 7 9 10 11 11 11
3 4 4 3 3 2 3 4 5 4 3 4 6 7 8 9 11 11 13 12 12 12 12 12 12 14 12 12 12 12 11 11 12 9 9 9 8 7 7 8 9 10 10 10
Wind_Direction
259 282 277 274 274 270 262 260 248 279 273 281 286 290 298 223 263 174 210 223 222 225 248 267 259 277 270 250 259 269 287 289 293 293 282 268 238 197 188 196 192 181 177 170
279 291 281 276 274 273 267 266 264 271 280 293 299 344 350 344 283 259 254 269 278 301 284 271 255 254 259 261 264 246 263 280 269 286 268 253 244 205 191 187 187 159 165 170
275 276 300 282 243 246 255 258 251 262 274 38 359 351 319 315 324 356 282 260 259 261 260 262 248 239 245 254 267 267 260 272 273 273 269 260 250 196 192 200 190 172 164 169
274 91 258 250 226 248 263 267 280 282 53 233 225 241 259 271 282 286 271 252 258 262 268 265 245 238 238 244 265 277 280 283 274 264 263 251 251 221 184 186 199 200 182 168
200 202 278 302 316 23 1 279 126 13 330 315 285 250 254 238 254 259 265 269 274 267 269 272 246 229 234 267 268 269 272 276 274 269 272 240 221 233 192 169 219 187 179 165
157 242 244 219 20 319 290 248 14 355 315 321 333 312 288 295 292 292 284 281 276 266 258 255 263 235 243 247 251 261 268 268 267 262 276 257 212 198 184 178 195 218 175 174
210 246 266 299 287 288 16 298 337 314 292 285 281 263 282 285 287 278 278 275 277 277 264 259 270 251 252 262 254 261 266 268 266 262 265 279 220 199 177 154 142 190 162 164
318 243 277 358 9 14 231 266 269 282 265 278 280 275 273 273 279 285 281 277 273 265 264 266 269 280 273 262 250 249 262 266 262 267 266 269 204 207 175 166 166 175 155 148
226 239 303 4 207 240 267 282 294 274 285 287 290 287 284 278 270 273 271 273 262 261 278 280 283 266 269 271 253 237 255 265 259 264 263 254 207 191 183 166 162 158 160 150
336 256 309 306 282 289 287 294 299 268 281 289 286 288 288 281 283 286 284 280 279 282 286 285 274 270 268 273 251 256 258 259 253 249 260 225 185 182 168 171 163 159 158 153
279 291 298 266 318 311 307 303 303 294 297 291 293 300 297 295 295 292 290 291 287 277 274 274 280 277 276 264 254 251 246 253 249 248 239 213 199 179 175 178 170 161 164 154
265 304 271 288 320 305 315 320 326 326 314 306 304 300 301 290 289 290 288 285 281 277 275 278 281 279 273 260 247 242 245 246 241 242 219 191 178 124 40 149 145 147 158 161
265 250 249 293 301 324 330 324 320 316 313 307 304 296 296 291 292 290 285 282 280 283 284 283 279 275 268 260 246 237 236 236 236 225 200 182 168 160 123 49 107 144 140 133
336 343 305 314 311 315 329 328 323 315 309 303 304 306 297 291 293 290 287 286 285 282 278 277 273 265 258 256 247 240 237 222 205 190 164 155 160 145 149 147 149 131 103 134
289 310 281 281 289 325 339 327 319 320 315 314 312 302 301 301 298 293 289 288 282 281 281 280 282 266 254 241 236 233 218 184 164 147 140 150 144 138 142 133 128 121 109 80
302 291 286 329 317 335 326 316 310 317 321 318 313 313 312 305 294 296 301 306 312 302 304 306 301 303 267 222 223 202 165 161 140 137 142 137 138 133 137 135 132 140 144 140
294 288 319 311 327 330 320 314 314 317 315 315 316 312 309 313 316 322 325 323 321 308 305 316 314 313 284 119 153 155 135 152 144 141 149 148 142 147 145 141 140 148 147 154
284 89 350 302 314 324 324 320 320 319 321 316 316 318 327 338 335 331 332 328 334 337 347 338 329 320 59 98 119 130 139 150 147 141 136 129 143 146 146 141 145 145 141 140
90 60 306 314 328 327 321 323 322 318 319 324 329 332 333 345 346 345 342 347 359 353 340 335 335 342 44 99 107 121 130 126 120 128 128 119 109 133 139 141 140 142 146 150
149 228 259 322 330 323 327 326 322 324 333 338 339 351 354 354 348 349 352 353 359 345 330 338 341 360 31 64 76 97 111 115 114 106 118 118 124 115 107 117 129 139 145 146
210 215 238 285 298 304 323 336 332 338 335 342 351 351 341 348 356 354 4 360 345 344 338 346 350 344 6 50 68 81 99 107 113 118 118 114 111 118 120 130 134 138 142 139
210 212 239 249 278 295 299 323 340 341 348 355 0 4 4 4 0 0 4 1 335 344 350 1 358 357 12 37 72 90 99 100 102 105 109 113 120 123 127 131 135 138 137 135
215 214 233 250 275 298 305 307 343 354 358 357 359 359 359 346 349 1 350 345 348 351 8 5 1 14 18 30 53 76 91 94 95 97 100 110 115 126 130 135 134 138 140 140
253 245 231 242 271 319 338 320 334 345 357 5 357 353 357 1 3 4 350 351 3 6 15 9 12 16 28 34 38 59 75 86 91 96 95 95 107 113 118 125 126 135 133 136
73 58 49 49 265 329 294 293 343 4 1 6 4 6 11 16 17 335 360 7 10 13 16 14 16 23 31 35 38 47 54 65 79 83 92 99 105 112 121 125 126 130 131 124
114 71 59 86 105 26 15 26 22 36 13 8 16 15 18 16 11 15 15 14 19 17 20 16 19 25 29 32 37 43 46 56 65 68 77 82 91 106 110 117 123 120 119 116
113 90 74 36 355 355 356 21 53 66 40 19 22 19 24 20 19 21 21 20 20 21 22 21 22 24 28 31 34 36 41 48 47 58 59 64 64 75 90 107 107 112 112 118